• In Hungary
  • List of Countries
  • For 7 days
  • Water Temperature
  • Satellite Maps
  • Weather Map
  • News
  • Weather Widgets
  • user-avatar
    Login

    Hourly Weather Pushkari

    Today, 18 June, Monday

    Time Temperature Precipitation Wind Pressure Humidity
    00:00 +15°C° 0 mm 1 mps 749 mmHg 73%
    01:00 +15°C° 0 mm 1 mps 749 mmHg 75%
    02:00 +14°C° 0 mm 1 mps 749 mmHg 78%
    03:00 +13°C° 0 mm 1 mps 748 mmHg 81%
    04:00 +14°C° 0 mm 1 mps 748 mmHg 80%
    05:00 +15°C° 0 mm 1 mps 749 mmHg 80%
    06:00 +16°C° 0 mm 1 mps 749 mmHg 79%
    07:00 +19°C° 0 mm 1 mps 749 mmHg 74%
    08:00 +21°C° 0 mm 1 mps 749 mmHg 69%
    09:00 +23°C° 0 mm 1 mps 749 mmHg 64%
    10:00 +24°C° 0 mm 1 mps 748 mmHg 59%
    11:00 +25°C° 0 mm 1 mps 748 mmHg 54%
    12:00 +27°C° 0 mm 1 mps 748 mmHg 50%
    13:00 +27°C° 0 mm 1 mps 748 mmHg 48%
    14:00 +27°C° 0 mm 1 mps 748 mmHg 47%
    15:00 +27°C° 0 mm 1 mps 748 mmHg 46%
    16:00 +27°C° 0 mm 1 mps 748 mmHg 50%
    17:00 +27°C° 0 mm 1 mps 748 mmHg 54%
    18:00 +27°C° 0 mm 1 mps 747 mmHg 59%
    19:00 +25°C° 0 mm 1 mps 747 mmHg 62%
    20:00 +23°C° 0 mm 1 mps 747 mmHg 65%
    21:00 +20°C° 0 mm 2 mps 747 mmHg 68%
    22:00 +19°C° 0 mm 2 mps 747 mmHg 70%
    23:00 +18°C° 0 mm 2 mps 747 mmHg 72%

    Tomorrow, 19 June, Tuesday

    Time Temperature Precipitation Wind Pressure Humidity
    00:00 +17°C° 0 mm 2 mps 747 mmHg 73%
    01:00 +17°C° 0 mm 2 mps 747 mmHg 75%
    02:00 +16°C° 0 mm 2 mps 747 mmHg 77%
    03:00 +16°C° 0 mm 2 mps 747 mmHg 78%
    04:00 +17°C° 0 mm 2 mps 747 mmHg 79%
    05:00 +17°C° 0 mm 2 mps 747 mmHg 80%
    06:00 +18°C° 0 mm 2 mps 747 mmHg 80%
    07:00 +19°C° 0 mm 2 mps 747 mmHg 77%
    08:00 +21°C° 0 mm 3 mps 747 mmHg 73%
    09:00 +24°C° 0 mm 3 mps 747 mmHg 69%
    10:00 +24°C° 0.3 mm 3 mps 747 mmHg 69%
    11:00 +23°C° 0.3 mm 4 mps 747 mmHg 69%
    12:00 +25°C° 0.3 mm 4 mps 747 mmHg 69%
    13:00 +25°C° 0.4 mm 4 mps 746 mmHg 71%
    14:00 +25°C° 0.4 mm 4 mps 746 mmHg 73%
    15:00 +23°C° 0.4 mm 4 mps 746 mmHg 75%
    16:00 +25°C° 0.4 mm 4 mps 746 mmHg 76%
    17:00 +25°C° 0.4 mm 4 mps 745 mmHg 78%
    18:00 +25°C° 0.4 mm 4 mps 745 mmHg 79%
    19:00 +22°C° 0.2 mm 4 mps 745 mmHg 83%
    20:00 +21°C° 0.2 mm 4 mps 745 mmHg 87%
    21:00 +20°C° 0.2 mm 4 mps 745 mmHg 90%
    22:00 +19°C° 0 mm 3 mps 745 mmHg 92%
    23:00 +19°C° 0 mm 3 mps 745 mmHg 93%

    Day after tomorrow, 20 June, Wednesday

    Time Temperature Precipitation Wind Pressure Humidity
    00:00 +18°C° 0 mm 3 mps 744 mmHg 94%
    01:00 +18°C° 0 mm 3 mps 745 mmHg 94%
    02:00 +17°C° 0 mm 3 mps 745 mmHg 94%
    03:00 +17°C° 0 mm 3 mps 745 mmHg 95%
    04:00 +17°C° 0 mm 4 mps 745 mmHg 93%
    05:00 +17°C° 0 mm 4 mps 745 mmHg 91%
    06:00 +18°C° 0 mm 4 mps 745 mmHg 88%
    07:00 +19°C° 0 mm 4 mps 745 mmHg 83%
    08:00 +20°C° 0 mm 4 mps 746 mmHg 77%
    09:00 +21°C° 0 mm 5 mps 746 mmHg 71%
    10:00 +22°C° 0 mm 5 mps 746 mmHg 68%
    11:00 +23°C° 0 mm 5 mps 746 mmHg 66%
    12:00 +24°C° 0 mm 6 mps 746 mmHg 64%
    13:00 +24°C° 0 mm 6 mps 746 mmHg 63%
    14:00 +24°C° 0 mm 6 mps 746 mmHg 63%
    15:00 +24°C° 0 mm 6 mps 746 mmHg 62%
    16:00 +25°C° 0 mm 5 mps 746 mmHg 65%
    17:00 +25°C° 0 mm 4 mps 745 mmHg 67%
    18:00 +25°C° 0 mm 4 mps 745 mmHg 69%
    19:00 +22°C° 0 mm 3 mps 746 mmHg 73%
    20:00 +20°C° 0 mm 3 mps 746 mmHg 78%
    21:00 +19°C° 0 mm 2 mps 746 mmHg 82%
    22:00 +18°C° 0 mm 2 mps 746 mmHg 83%
    23:00 +17°C° 0 mm 2 mps 746 mmHg 85%

    21 June, Thursday

    Time Temperature Precipitation Wind Pressure Humidity
    00:00 +16°C° 0 mm 2 mps 747 mmHg 87%
    01:00 +16°C° 0 mm 2 mps 747 mmHg 88%
    02:00 +15°C° 0 mm 2 mps 747 mmHg 90%
    03:00 +15°C° 0 mm 2 mps 747 mmHg 91%
    04:00 +14°C° 0 mm 3 mps 747 mmHg 89%
    05:00 +16°C° 0 mm 3 mps 747 mmHg 87%
    06:00 +16°C° 0 mm 3 mps 747 mmHg 85%
    07:00 +18°C° 0 mm 3 mps 747 mmHg 79%
    08:00 +20°C° 0 mm 3 mps 747 mmHg 73%
    09:00 +21°C° 0 mm 3 mps 747 mmHg 66%
    10:00 +22°C° 0 mm 3 mps 747 mmHg 63%
    11:00 +23°C° 0 mm 4 mps 747 mmHg 59%
    12:00 +25°C° 0 mm 4 mps 747 mmHg 55%
    13:00 +25°C° 0 mm 4 mps 747 mmHg 56%
    14:00 +25°C° 0 mm 3 mps 747 mmHg 56%
    15:00 +26°C° 0 mm 3 mps 746 mmHg 56%
    16:00 +26°C° 0 mm 3 mps 746 mmHg 59%
    17:00 +26°C° 0 mm 3 mps 746 mmHg 62%
    18:00 +26°C° 0 mm 2 mps 746 mmHg 65%
    19:00 +24°C° 0 mm 2 mps 746 mmHg 70%
    20:00 +21°C° 0 mm 2 mps 746 mmHg 75%
    21:00 +20°C° 0 mm 1 mps 746 mmHg 80%
    22:00 +19°C° 0 mm 2 mps 746 mmHg 82%
    23:00 +18°C° 0 mm 2 mps 746 mmHg 84%

    22 June, Friday

    Time Temperature Precipitation Wind Pressure Humidity
    00:00 +17°C° 0 mm 2 mps 746 mmHg 86%
    01:00 +17°C° 0 mm 2 mps 746 mmHg 87%
    02:00 +16°C° 0 mm 2 mps 746 mmHg 89%
    03:00 +16°C° 0 mm 2 mps 746 mmHg 90%
    04:00 +17°C° 0 mm 3 mps 746 mmHg 88%
    05:00 +17°C° 0 mm 3 mps 746 mmHg 86%
    06:00 +18°C° 0 mm 3 mps 746 mmHg 85%
    07:00 +20°C° 0 mm 4 mps 745 mmHg 81%
    08:00 +21°C° 0 mm 4 mps 745 mmHg 76%
    09:00 +23°C° 0 mm 5 mps 745 mmHg 72%
    10:00 +25°C° 0 mm 5 mps 745 mmHg 69%
    11:00 +26°C° 0 mm 5 mps 744 mmHg 66%
    12:00 +27°C° 0 mm 5 mps 744 mmHg 63%
    13:00 +28°C° 0.1 mm 5 mps 744 mmHg 64%
    14:00 +28°C° 0.1 mm 5 mps 743 mmHg 64%
    15:00 +29°C° 0.1 mm 5 mps 743 mmHg 65%
    16:00 +28°C° 0.4 mm 5 mps 743 mmHg 69%
    17:00 +28°C° 0.4 mm 4 mps 743 mmHg 74%
    18:00 +27°C° 0.4 mm 4 mps 742 mmHg 78%
    19:00 +26°C° 0.2 mm 4 mps 742 mmHg 82%
    20:00 +25°C° 0.2 mm 4 mps 742 mmHg 86%
    21:00 +22°C° 0.2 mm 4 mps 742 mmHg 89%
    22:00 +22°C° 0 mm 4 mps 742 mmHg 91%
    23:00 +21°C° 0 mm 4 mps 742 mmHg 92%

    23 June, Saturday

    Time Temperature Precipitation Wind Pressure Humidity
    00:00 +21°C° 0 mm 4 mps 742 mmHg 93%
    01:00 +21°C° 0 mm 4 mps 742 mmHg 93%
    02:00 +20°C° 0 mm 4 mps 742 mmHg 94%
    03:00 +20°C° 0 mm 4 mps 741 mmHg 94%
    04:00 +20°C° 0 mm 4 mps 741 mmHg 93%
    05:00 +20°C° 0 mm 4 mps 741 mmHg 92%
    06:00 +21°C° 0 mm 4 mps 741 mmHg 90%
    07:00 +22°C° 0.1 mm 4 mps 741 mmHg 86%
    08:00 +23°C° 0.1 mm 5 mps 741 mmHg 81%
    09:00 +25°C° 0.1 mm 5 mps 741 mmHg 77%
    10:00 +26°C° 0.5 mm 6 mps 741 mmHg 74%
    11:00 +27°C° 0.5 mm 6 mps 741 mmHg 70%
    12:00 +28°C° 0.5 mm 6 mps 741 mmHg 67%
    13:00 +28°C° 1 mm 6 mps 741 mmHg 69%
    14:00 +28°C° 1 mm 6 mps 741 mmHg 70%
    15:00 +28°C° 1 mm 5 mps 741 mmHg 71%
    16:00 +27°C° 1.9 mm 5 mps 741 mmHg 75%
    17:00 +25°C° 1.9 mm 4 mps 741 mmHg 79%
    18:00 +23°C° 1.9 mm 4 mps 741 mmHg 83%
    19:00 +22°C° 1.5 mm 3 mps 741 mmHg 86%
    20:00 +21°C° 1.5 mm 3 mps 741 mmHg 88%
    21:00 +20°C° 1.5 mm 3 mps 741 mmHg 91%
    22:00 +20°C° 0.3 mm 3 mps 741 mmHg 92%
    23:00 +19°C° 0.3 mm 3 mps 741 mmHg 93%
    Show more